Location: Ajisawe
(8.4333°N, 4.3833°E)
Time: 00:32:42
(UTC+00:00)

S-56A Canister/Altair - Pass Details

Date: 27 April 2021
Orbit: 631 x 2501 km, 38.9° (Epoch: 15 May)

Event Time Altitude Azimuth Distance (km) Brightness Sun altitude
Exits shadow 04:35:58 - 303° (WNW) 2,226 9.5 -13.3°
Reaches altitude 10° 04:36:31 10° 303° (WNW) 2,003 9.3 -13.2°
Maximum altitude 04:40:52 65° 221° (SW) 704 7.1 -12.1°
Drops below altitude 10° 04:45:43 10° 139° (SE) 2,222 10.2 -11.0°
Sets 04:48:25 0° 136° (SE) 3,317 11.2 -10.4°
